Time,TemperatureF,DewpointF,PressureIn,WindDirection,WindDirectionDegrees,WindSpeedMPH,WindSpeedGustMPH,Humidity,HourlyPrecipIn,Conditions,Clouds,dailyrainin,SoftwareType,DateUTC
2013-08-15 00:21:00,66.0,56.0,29.85,SW,234,0.0,1.0,71,0.00,,,0.00,,2013-08-15 07:21:00,
2013-08-15 00:52:00,64.0,55.0,29.85,SW,234,0.0,0.0,73,0.00,,,0.00,,2013-08-15 07:52:00,
2013-08-15 01:11:00,63.0,55.0,29.85,SW,234,0.0,0.0,75,0.00,,,0.00,,2013-08-15 08:11:00,
2013-08-15 01:21:00,62.0,55.0,29.85,SW,234,0.0,1.0,77,0.00,,,0.00,,2013-08-15 08:21:00,
2013-08-15 01:52:00,61.0,55.0,29.85,SW,234,0.0,0.0,80,0.00,,,0.00,,2013-08-15 08:52:00,
2013-08-15 02:11:00,61.0,55.0,29.84,SW,234,0.0,1.0,80,0.00,,,0.00,,2013-08-15 09:11:00,
2013-08-15 02:21:00,61.0,55.0,29.84,SW,234,0.0,1.0,80,0.00,,,0.00,,2013-08-15 09:21:00,
2013-08-15 02:53:00,60.0,55.0,29.85,SW,234,0.0,0.0,83,0.00,,,0.00,,2013-08-15 09:53:00,
2013-08-15 03:22:00,61.0,56.0,29.85,SW,234,0.0,0.0,85,0.00,,,0.00,,2013-08-15 10:22:00,
2013-08-15 03:52:00,60.0,55.0,29.85,SW,234,0.0,0.0,85,0.00,,,0.00,,2013-08-15 10:52:00,
2013-08-15 04:22:00,60.0,56.0,29.85,SW,234,0.0,1.0,86,0.00,,,0.00,,2013-08-15 11:22:00,
2013-08-15 04:51:00,59.0,55.0,29.85,SW,234,0.0,1.0,86,0.00,,,0.00,,2013-08-15 11:51:00,
2013-08-15 05:11:00,59.0,55.0,29.85,SW,234,0.0,1.0,87,0.00,,,0.00,,2013-08-15 12:11:00,
2013-08-15 05:21:00,59.0,55.0,29.85,SW,234,0.0,1.0,88,0.00,,,0.00,,2013-08-15 12:21:00,
2013-08-15 05:51:00,59.0,56.0,29.85,SW,234,0.0,1.0,89,0.00,,,0.00,,2013-08-15 12:51:00,
2013-08-15 06:11:00,59.0,56.0,29.86,SW,234,0.0,1.0,89,0.00,,,0.00,,2013-08-15 13:11:00,
2013-08-15 06:21:00,59.0,56.0,29.86,SW,234,0.0,1.0,89,0.00,,,0.00,,2013-08-15 13:21:00,
2013-08-15 06:52:00,58.0,55.0,29.87,SW,234,0.0,1.0,90,0.00,,,0.00,,2013-08-15 13:52:00,
2013-08-15 07:22:00,59.0,56.0,29.88,SW,234,0.0,1.0,91,0.00,,,0.00,,2013-08-15 14:22:00,
2013-08-15 07:53:00,62.0,58.0,29.89,SW,234,0.0,1.0,87,0.00,,,0.00,,2013-08-15 14:53:00,
2013-08-15 08:22:00,65.0,59.0,29.90,SW,221,2.0,5.0,81,0.00,,,0.00,,2013-08-15 15:22:00,
2013-08-15 08:54:00,68.0,61.0,29.90,SW,222,4.0,7.0,77,0.00,,,0.00,,2013-08-15 15:54:00,
2013-08-15 09:25:00,70.0,61.0,29.91,SSW,213,2.0,7.0,74,0.00,,,0.00,,2013-08-15 16:25:00,
2013-08-15 09:55:00,72.0,62.0,29.91,SW,217,2.0,8.0,70,0.00,,,0.00,,2013-08-15 16:55:00,
2013-08-15 10:18:00,73.0,62.0,29.91,West,261,4.0,8.0,68,0.00,,,0.00,,2013-08-15 17:18:00,
2013-08-15 10:30:00,73.0,-99.9,29.91,West,261,4.0,8.0,68,0.00,,,0.00,,2013-08-15 17:30:00,
2013-08-15 10:50:00,74.0,61.0,29.91,WSW,242,3.0,8.0,65,0.00,,,0.00,,2013-08-15 17:50:00,
2013-08-15 11:00:00,-999.0,-99.9,29.91,SW,227,3.0,6.0,-999,-99.99,,,-99.99,,2013-08-15 18:00:00,
2013-08-15 11:23:00,76.0,62.0,29.90,West,261,2.0,6.0,61,0.00,,,0.00,,2013-08-15 18:23:00,
2013-08-15 11:32:00,-999.0,-99.9,29.91,SSW,211,3.0,8.0,-999,0.00,,,0.00,,2013-08-15 18:32:00,
2013-08-15 11:40:00,-999.0,-99.9,29.90,SW,221,3.0,6.0,55,0.00,,,0.00,,2013-08-15 18:40:00,
2013-08-15 12:03:00,-999.0,-99.9,29.90,WSW,247,2.0,8.0,-999,0.00,,,0.00,,2013-08-15 19:03:00,
2013-08-15 12:31:00,-999.0,-99.9,29.89,WSW,240,2.0,8.0,-999,-99.99,,,-99.99,,2013-08-15 19:31:00,
2013-08-15 13:02:00,85.0,61.0,29.88,WSW,246,4.0,8.0,44,0.00,,,0.00,,2013-08-15 20:02:00,
2013-08-15 13:13:00,-999.0,-99.9,29.88,WNW,286,1.0,-999.0,-999,-99.99,,,-99.99,,2013-08-15 20:13:00,
2013-08-15 13:26:00,87.0,61.0,29.88,West,260,2.0,9.0,42,0.00,,,0.00,,2013-08-15 20:26:00,
2013-08-15 13:53:00,89.0,61.0,29.88,NW,304,1.0,6.0,40,0.00,,,0.00,,2013-08-15 20:53:00,
2013-08-15 14:30:00,91.0,59.0,29.87,WSW,246,1.0,7.0,35,0.00,,,0.00,,2013-08-15 21:30:00,
2013-08-15 14:57:00,92.0,58.0,29.86,WNW,298,2.0,7.0,32,0.00,,,0.00,,2013-08-15 21:57:00,
2013-08-15 15:28:00,94.0,60.0,29.85,WNW,286,2.0,9.0,32,0.00,,,0.00,,2013-08-15 22:28:00,
2013-08-15 15:58:00,94.0,59.0,29.85,West,269,2.0,8.0,31,0.00,,,0.00,,2013-08-15 22:58:00,
2013-08-15 16:32:00,-999.0,-99.9,29.84,WNW,294,2.0,12.0,29,0.00,,,0.00,,2013-08-15 23:32:00,
2013-08-15 16:55:00,94.0,57.0,29.83,WNW,301,2.0,6.0,29,0.00,,,0.00,,2013-08-15 23:55:00,
2013-08-15 17:24:00,94.0,55.0,29.83,West,270,3.0,11.0,27,0.00,,,0.00,,2013-08-16 00:24:00,
2013-08-15 17:44:00,94.0,57.0,29.83,WSW,256,3.0,12.0,29,0.00,,,0.00,,2013-08-16 00:44:00,
2013-08-15 17:52:00,93.0,56.0,29.83,West,263,5.0,10.0,29,0.00,,,0.00,,2013-08-16 00:52:00,
2013-08-15 18:26:00,92.0,58.0,29.83,West,269,2.0,9.0,32,0.00,,,0.00,,2013-08-16 01:26:00,
2013-08-15 18:41:00,-999.0,-99.9,29.83,WSW,241,1.0,7.0,-999,-99.99,,,-99.99,,2013-08-16 01:41:00,
2013-08-15 18:54:00,90.0,57.0,29.82,West,277,1.0,9.0,33,0.00,,,0.00,,2013-08-16 01:54:00,
2013-08-15 19:21:00,88.0,62.0,29.83,WSW,255,2.0,7.0,42,0.00,,,0.00,,2013-08-16 02:21:00,
2013-08-15 19:43:00,86.0,62.0,29.83,WSW,254,5.0,9.0,45,0.00,,,0.00,,2013-08-16 02:43:00,
2013-08-15 19:51:00,85.0,62.0,29.83,WSW,256,5.0,11.0,46,0.00,,,0.00,,2013-08-16 02:51:00,
2013-08-15 20:21:00,82.0,63.0,29.83,West,261,4.0,9.0,52,0.00,,,0.00,,2013-08-16 03:21:00,
2013-08-15 20:53:00,79.0,62.0,29.85,WSW,240,3.0,7.0,56,0.00,,,0.00,,2013-08-16 03:53:00,
2013-08-15 21:23:00,76.0,62.0,29.85,WSW,245,1.0,3.0,63,0.00,,,0.00,,2013-08-16 04:23:00,
2013-08-15 21:53:00,74.0,62.0,29.85,WSW,245,3.0,4.0,67,0.00,,,0.00,,2013-08-16 04:53:00,
2013-08-15 22:21:00,72.0,62.0,29.86,SW,236,2.0,5.0,71,0.00,,,0.00,,2013-08-16 05:21:00,
2013-08-15 22:54:00,71.0,62.0,29.86,WSW,241,2.0,6.0,72,0.00,,,0.00,,2013-08-16 05:54:00,